Погода в Александрии

Египет     31°12′52″N   29°56′44″E
темп.,
°C
ветер,
м/с
пор.,
м/с
влажн.,
%
обл.,
%
осадки,
мм/ч
давл.,
гПа
погр.,
м
24 января, пн
пн2423:00+12сз10127091 3.1 10181068
02:00+11ссз577182 3.7 1020744
05:00+11ссз5664100 0.4 1020746
08:00+11ссз455989 0.8 1021786
11:00+13зсз235095 0.2 10221460
14:00+12зюз236195 0.4 10211041
17:00+12юз12615 0.1 1021828
20:00+11ююз34668 0.2 1022506
25 января, вт
вт2523:00+10ююз58652 0.1 1022575
02:00+10юз69552 0.1 1021721
05:00+10юз610555 0.0 1019840
08:00+11зюз8106434 0.0 10201049
11:00+13зюз8106987 1.0 10201159
14:00+14з89596 2.0 10181472
17:00+14з795226 0.2 10181663
20:00+14зюз795298 0.3 10191517
26 января, ср
ср2623:00+13зюз795345 0.3 10181269
02:00+12зюз91159100 0.8 10171593
05:00+10зюз8106850 1.2 10161229
08:00+9сз81373100 11.4 10181532
11:00+11сз111453100 0.8 10192424
14:00+12зсз121550100 1.9 10192708
17:00+11зсз121557100 0.9 10192083
20:00+11зсз121565100 2.3 10211617
27 января, чт
чт2723:00+11сз12146690 1.6 10211439
02:00+11зсз10136594 2.6 10221287
05:00+12зсз91254100 0.4 10211583
08:00+13сз8104996 0.4 10231704
11:00+14зсз8104676 0.0 10242131
14:00+14зсз894782 0.1 10232097
17:00+14зсз795585 0.1 10231642
20:00+13зсз795168 0.1 10241451
28 января, пт
пт2823:00+14зсз794955 0.0 10241483
02:00+13зсз7857100 0.2 10241186
05:00+13зсз686198 0.4 10241160
08:00+13сз7858100 1.2 10261191
11:00+14сз6855100 0.1 10261842
14:00+14сз675279 0.3 10251564
17:00+14сз565493 0.1 10251386
20:00+14сз4450100 0.1 10261024